GW3419 Weather Reports


Display with metric or nautical units.
time (UTC)temp
F
wind
direction
speed
MPH
gust
MPH
rain 1hr
in
rain 24hr
in
rain mn
in
humidity
%
barometer
mb
20260903110959 71 283 0.0 3.0 0.09 0.04 0.04 92 1007.9
20260903110454 71 206 3.0 4.0 0.05 0.02 0.02 93 1008.1
20260903105948 72 231 1.0 3.0 0.02 0.02 0.02 94 1008.2
20260903105439 72 250 3.0 5.0 0.05 0.01 0.01 93 1008.5
20260903104938 73 294 2.0 8.0 0.07 0.01 0.01 91 1008.0
20260903104438 74 271 3.0 7.0 0.00 0.00 0.00 88 1007.8
20260903103935 74 216 3.0 9.0 0.00 0.00 0.00 89 1007.7
20260903103430 74 304 2.0 12.0 0.00 0.00 0.00 90 1007.6
20260903102926 73 235 4.0 13.0 0.00 0.00 0.00 91 1007.4
20260903102421 74 25 2.0 10.0 0.00 0.00 0.00 90 1007.1
20260903101920 74 227 2.0 13.0 0.00 0.00 0.00 90 1007.5
20260903101415 73 249 3.0 9.0 0.00 0.00 0.00 92 1007.7
20260903100910 73 245 0.0 4.0 0.00 0.00 0.00 94 1007.8
20260903100406 72 211 0.0 5.0 0.00 0.00 0.00 95 1007.9
20260903095902 72 221 4.0 5.0 0.00 0.00 0.00 96 1007.3
20260903095356 72 176 2.0 4.0 0.00 0.00 0.00 96 1007.1
20260903094851 72 218 2.0 5.0 0.00 0.00 0.00 96 1007.0
20260903094346 71 205 3.0 3.0 0.00 0.00 0.00 96 1006.7
20260903093842 71 200 2.0 4.0 0.00 0.00 0.00 96 1006.8
20260903093337 71 227 2.0 5.0 0.00 0.00 0.00 96 1007.0
20260903092832 71 204 3.0 7.0 0.00 0.00 0.00 96 1006.7
20260903092326 71 229 3.0 5.0 0.00 0.00 0.00 96 1006.6
20260903091825 71 184 2.0 2.0 0.00 0.00 0.00 96 1006.5
20260903091319 71 199 2.0 3.0 0.00 0.00 0.00 96 1006.6
20260903090815 71 189 0.0 3.0 0.00 0.00 0.00 96 1006.7
20260903090315 71 174 1.0 3.0 0.00 0.00 0.00 96 1006.8
20260903085813 71 136 2.0 5.0 0.00 0.00 0.00 96 1006.5
20260903085308 71 122 0.0 3.0 0.00 0.00 0.00 95 1006.3
20260903084806 71 143 1.0 3.0 0.00 0.00 0.00 95 1006.3
20260903084300 72 154 0.0 3.0 0.00 0.00 0.00 95 1006.6
20260903083755 72 175 2.0 4.0 0.00 0.00 0.00 95 1006.4
20260903083250 72 140 0.0 3.0 0.00 0.00 0.00 95 1006.5
20260903082749 72 242 2.0 5.0 0.00 0.00 0.00 95 1006.8
20260903082245 72 221 3.0 3.0 0.00 0.00 0.00 94 1006.6
20260903081745 72 162 2.0 4.0 0.00 0.00 0.00 94 1006.5
20260903081241 72 174 1.0 4.0 0.00 0.00 0.00 94 1006.5
20260903080737 72 160 2.0 4.0 0.00 0.00 0.00 95 1006.5
20260903080234 71 158 1.0 3.0 0.00 0.00 0.00 95 1006.5
20260903075734 71 182 2.0 3.0 0.00 0.00 0.00 95 1006.4
20260903075229 71 246 0.0 2.0 0.00 0.00 0.00 95 1006.4
20260903074728 72 113 0.0 3.0 0.00 0.00 0.00 95 1006.5
20260903074223 72 66 1.0 3.0 0.00 0.00 0.00 95 1006.6
20260903073718 72 99 2.0 4.0 0.00 0.00 0.00 95 1006.5
20260903073213 72 159 1.0 5.0 0.00 0.00 0.00 95 1006.6
20260903072709 72 147 0.0 5.0 0.00 0.00 0.00 95 1006.3
20260903072206 72 129 1.0 4.0 0.00 0.00 0.00 95 1006.6
20260903071701 72 95 0.0 4.0 0.00 0.00 0.00 95 1006.5
20260903071157 72 175 2.0 3.0 0.00 0.00 0.00 95 1006.7
20260903070656 72 142 0.0 4.0 0.00 0.00 0.00 95 1006.8
20260903070152 72 163 1.0 7.0 0.00 0.00 0.00 95 1006.7
20260903065647 72 163 2.0 3.0 0.00 0.00 0.00 94 1006.6
20260903065141 73 162 2.0 4.0 0.00 0.00 0.00 94 1006.7
20260903064640 73 193 2.0 4.0 0.00 0.00 0.00 94 1007.0
20260903064136 73 121 1.0 4.0 0.00 0.00 0.00 94 1006.8
20260903063632 73 169 1.0 3.0 0.00 0.00 0.00 94 1006.9
20260903063127 73 132 1.0 3.0 0.00 0.00 0.00 94 1007.0
20260903062622 73 161 1.0 3.0 0.00 0.00 0.00 94 1007.2
20260903062117 73 118 2.0 4.0 0.00 0.00 0.00 94 1007.0
20260903061612 73 196 1.0 2.0 0.00 0.00 0.00 94 1007.1
20260903061112 73 200 2.0 3.0 0.00 0.00 0.00 94 1007.1
20260903060607 73 163 1.0 3.0 0.00 0.00 0.00 95 1006.9
20260903055600 73 177 1.0 3.0 0.00 0.00 0.00 95 1007.1
20260903055058 73 219 2.0 3.0 0.00 0.00 0.00 95 1007.1
20260903054553 73 197 1.0 3.0 0.00 0.00 0.00 95 1007.2
20260903054049 73 180 1.0 3.0 0.00 0.00 0.00 95 1007.1
20260903053544 73 224 0.0 3.0 0.00 0.00 0.00 95 1007.2
20260903053041 73 166 0.0 2.0 0.00 0.00 0.00 95 1007.1
20260903052536 73 196 2.0 3.0 0.00 0.00 0.00 94 1007.1
20260903052032 73 221 2.0 3.0 0.00 0.00 0.00 94 1007.1
20260903051531 73 203 1.0 4.0 0.00 0.00 0.00 94 1007.3
20260903051027 73 198 1.0 3.0 0.00 0.00 0.00 94 1007.2
20260903050526 73 187 2.0 3.0 0.00 0.00 0.00 94 1007.1
20260903050022 73 203 2.0 3.0 0.00 0.50 0.50 94 1007.4
20260903045521 74 199 2.0 3.0 0.00 0.50 0.50 94 1007.3
20260903045018 74 199 3.0 4.0 0.00 0.50 0.50 94 1007.2
20260903044514 74 206 2.0 3.0 0.00 0.50 0.50 94 1007.1
20260903044009 74 171 0.0 3.0 0.00 0.50 0.50 94 1007.3
20260903043505 74 190 1.0 3.0 0.00 0.50 0.50 93 1007.3
20260903043004 74 213 2.0 3.0 0.00 0.50 0.50 93 1007.2
20260903042458 74 203 1.0 3.0 0.00 0.50 0.50 93 1007.3
20260903041954 74 215 3.0 4.0 0.00 0.50 0.50 93 1007.3
20260903041451 74 187 0.0 3.0 0.00 0.50 0.50 92 1007.4
20260903040946 75 188 2.0 3.0 0.00 0.50 0.50 92 1007.0
20260903040444 75 191 2.0 4.0 0.00 0.50 0.50 92 1007.6
20260903035941 75 186 3.0 4.0 0.00 0.50 0.50 92 1007.4
20260903035437 75 198 2.0 3.0 0.00 0.50 0.50 92 1007.4
20260903034932 75 197 2.0 3.0 0.00 0.50 0.50 92 1007.4
20260903034432 75 197 2.0 3.0 0.00 0.50 0.50 92 1007.6
20260903033927 75 190 2.0 3.0 0.00 0.50 0.50 92 1007.6
20260903033422 75 205 2.0 3.0 0.00 0.50 0.50 91 1007.7
20260903032917 76 172 2.0 3.0 0.00 0.50 0.50 91 1007.5
20260903032413 76 199 3.0 3.0 0.00 0.50 0.50 91 1007.5
20260903031913 76 205 2.0 3.0 0.00 0.50 0.50 91 1007.6
20260903031413 76 202 0.0 2.0 0.00 0.50 0.50 91 1007.5
20260903030908 76 196 2.0 3.0 0.00 0.50 0.50 91 1007.6
20260903030404 76 210 2.0 2.0 0.00 0.50 0.50 91 1007.6
20260903025859 76 177 2.0 3.0 0.00 0.50 0.50 91 1007.4
20260903025355 76 188 1.0 2.0 0.00 0.50 0.50 91 1007.6
20260903024850 76 226 0.0 2.0 0.00 0.50 0.50 90 1007.6
20260903024350 76 191 2.0 3.0 0.00 0.50 0.50 90 1007.8
20260903023845 76 198 2.0 3.0 0.00 0.50 0.50 90 1007.7
20260903023341 77 162 0.0 2.0 0.00 0.50 0.50 90 1007.5
20260903022836 77 203 2.0 4.0 0.00 0.50 0.50 89 1007.7
20260903022335 77 208 2.0 4.0 0.00 0.50 0.50 90 1007.6
20260903021834 77 189 2.0 3.0 0.00 0.50 0.50 89 1007.3
20260903021330 77 214 2.0 3.0 0.00 0.50 0.50 89 1007.3
20260903020829 78 182 0.0 2.0 0.00 0.50 0.50 88 1007.3
20260903020324 78 191 1.0 2.0 0.00 0.50 0.50 88 1007.5
20260903015819 78 233 1.0 3.0 0.00 0.50 0.50 87 1007.4
20260903015315 78 188 0.0 3.0 0.00 0.50 0.50 87 1007.3
20260903014810 78 209 1.0 2.0 0.00 0.50 0.50 87 1007.3
20260903014309 78 173 0.0 1.0 0.00 0.50 0.50 86 1007.2
20260903013805 79 209 0.0 3.0 0.00 0.50 0.50 85 1007.1
20260903013304 79 187 1.0 2.0 0.00 0.50 0.50 85 1007.2
20260903012803 79 209 0.0 2.0 0.00 0.50 0.50 86 1007.2
20260903012257 79 204 1.0 2.0 0.00 0.50 0.50 85 1007.0
20260903011757 80 190 1.0 3.0 0.00 0.50 0.50 84 1007.0
20260903011256 80 200 0.0 3.0 0.00 0.50 0.50 83 1006.9
20260903010752 80 191 0.0 2.0 0.00 0.50 0.50 82 1006.9
20260903010247 81 193 2.0 3.0 0.00 0.50 0.50 80 1006.9
20260903005746 81 207 1.0 3.0 0.00 0.50 0.50 79 1006.7
20260903005241 81 210 2.0 3.0 0.00 0.50 0.50 79 1006.8
20260903004736 82 215 1.0 2.0 0.00 0.50 0.50 79 1006.9
20260903004232 82 194 0.0 2.0 0.00 0.50 0.50 79 1006.8
20260903003727 82 221 2.0 3.0 0.00 0.50 0.50 78 1006.8
20260903003222 82 197 2.0 3.0 0.00 0.50 0.50 78 1006.8
20260903002711 83 201 1.0 3.0 0.00 0.50 0.50 77 1006.7
20260903002205 83 203 2.0 3.0 0.00 0.50 0.50 77 1006.7
20260903001700 83 219 2.0 4.0 0.00 0.50 0.50 76 1006.6
20260903001154 83 219 1.0 3.0 0.00 0.50 0.50 76 1006.6
20260903000650 84 215 0.0 3.0 0.00 0.50 0.50 76 1006.7
20260903000149 84 218 2.0 5.0 0.00 0.50 0.50 75 1006.7
20260902235648 84 192 4.0 5.0 0.00 0.50 0.50 74 1006.7
20260902235144 84 201 5.0 5.0 0.00 0.50 0.50 74 1006.9
20260902234637 84 194 3.0 5.0 0.00 0.50 0.50 73 1006.8
20260902234136 84 195 2.0 6.0 0.00 0.50 0.50 73 1006.9
20260902233631 85 213 3.0 6.0 0.00 0.50 0.50 72 1006.7
20260902233125 85 194 6.0 6.0 0.00 0.50 0.50 72 1006.8
20260902232620 85 180 1.0 5.0 0.00 0.50 0.50 72 1006.9
20260902232119 85 206 3.0 6.0 0.00 0.50 0.50 72 1006.6
20260902231619 85 208 2.0 6.0 0.00 0.50 0.50 72 1006.6
20260902231119 86 207 4.0 7.0 0.00 0.50 0.50 71 1006.8
20260902230614 86 190 3.0 5.0 0.00 0.50 0.50 71 1006.9
20260902230112 87 226 2.0 6.0 0.00 0.50 0.50 69 1006.6
20260902225608 87 223 3.0 5.0 0.00 0.50 0.50 70 1006.8
20260902225108 87 216 2.0 6.0 0.00 0.50 0.50 70 1006.5
20260902224606 87 248 2.0 5.0 0.00 0.50 0.50 68 1006.9
20260902224102 87 227 3.0 5.0 0.00 0.50 0.50 68 1006.9
20260902223559 87 206 3.0 5.0 0.00 0.50 0.50 69 1006.8
20260902223057 87 204 4.0 5.0 0.00 0.50 0.50 69 1006.8
20260902222556 87 194 3.0 5.0 0.00 0.50 0.50 67 1006.8
20260902222055 88 175 2.0 4.0 0.00 0.50 0.50 65 1006.8
20260902221550 88 190 5.0 7.0 0.00 0.50 0.50 65 1007.0
20260902221044 87 153 2.0 6.0 0.00 0.50 0.50 67 1006.8
20260902220540 87 197 3.0 5.0 0.00 0.50 0.50 67 1006.8
20260902220040 87 220 4.0 10.0 0.00 0.50 0.50 69 1006.8
20260902215537 89 199 5.0 5.0 0.00 0.50 0.50 65 1006.8
20260902215032 87 22 0.0 5.0 0.00 0.50 0.50 66 1006.8
20260902214531 87 211 2.0 7.0 0.00 0.50 0.50 67 1006.8
20260902214031 88 221 2.0 4.0 0.00 0.50 0.50 65 1006.9
20260902213526 87 202 5.0 10.0 0.00 0.50 0.50 64 1007.0
20260902213025 89 197 5.0 7.0 0.00 0.50 0.50 63 1007.1
20260902212521 89 209 2.0 4.0 0.00 0.50 0.50 63 1007.1
20260902212018 89 183 0.0 6.0 0.00 0.50 0.50 62 1007.2
20260902211514 89 206 2.0 5.0 0.00 0.50 0.50 65 1007.1
20260902211009 89 195 4.0 4.0 0.00 0.50 0.50 65 1007.2
20260902210508 90 219 0.0 5.0 0.00 0.50 0.50 63 1007.2
20260902210007 89 170 1.0 2.0 0.00 0.50 0.50 64 1007.2
20260902205501 87 208 6.0 9.0 0.00 0.50 0.50 67 1007.1
20260902204957 87 188 5.0 10.0 0.00 0.50 0.50 67 1007.4
20260902204456 90 188 2.0 4.0 0.00 0.50 0.50 60 1007.4
20260902203952 91 124 1.0 3.0 0.00 0.50 0.50 62 1007.0
20260902203448 89 227 3.0 6.0 0.00 0.50 0.50 64 1007.2
20260902202946 89 199 1.0 3.0 0.00 0.50 0.50 64 1006.9
20260902202442 89 191 4.0 5.0 0.00 0.50 0.50 64 1007.3
20260902201939 90 159 0.0 4.0 0.00 0.50 0.50 61 1007.2
20260902201434 90 171 1.0 3.0 0.00 0.50 0.50 61 1007.2
20260902200929 88 167 2.0 5.0 0.00 0.50 0.50 66 1007.1
20260902200424 88 191 3.0 5.0 0.00 0.50 0.50 64 1007.2
20260902195919 90 202 2.0 3.0 0.00 0.50 0.50 60 1007.2
20260902195414 90 197 2.0 4.0 0.00 0.50 0.50 60 1007.5
20260902194909 89 156 1.0 4.0 0.00 0.50 0.50 63 1007.3
20260902194409 89 210 3.0 4.0 0.00 0.50 0.50 64 1007.4
20260902193909 88 205 1.0 4.0 0.00 0.50 0.50 66 1007.3
20260902193405 87 105 2.0 4.0 0.00 0.50 0.50 67 1007.7
20260902192903 87 211 6.0 6.0 0.00 0.50 0.50 68 1007.6
20260902192403 87 198 3.0 4.0 0.00 0.50 0.50 64 1007.5
20260902191856 88 220 4.0 4.0 0.00 0.50 0.50 66 1007.9
20260902191353 86 195 4.0 6.0 0.00 0.50 0.50 68 1007.9
20260902190847 87 180 3.0 5.0 0.00 0.50 0.50 66 1008.1
20260902190347 86 168 2.0 4.0 0.00 0.50 0.50 67 1008.1
20260902185837 86 197 3.0 4.0 0.00 0.50 0.50 66 1007.9
20260902185332 85 180 0.0 5.0 0.00 0.50 0.50 67 1007.9
20260902184828 86 214 2.0 5.0 0.00 0.50 0.50 65 1008.0
20260902184323 87 205 2.0 4.0 0.00 0.50 0.50 67 1008.3
20260902183819 87 136 1.0 4.0 0.00 0.50 0.50 66 1008.1
20260902183314 87 226 2.0 8.0 0.00 0.50 0.50 68 1008.2
20260902182810 86 25 0.0 4.0 0.00 0.50 0.50 66 1008.2
20260902182307 86 19 1.0 8.0 0.00 0.50 0.50 68 1008.3
20260902181803 87 160 2.0 6.0 0.00 0.50 0.50 67 1008.3
20260902181258 86 240 2.0 4.0 0.00 0.50 0.50 66 1008.6
20260902180752 86 221 1.0 3.0 0.00 0.50 0.50 68 1008.3
20260902180248 85 229 3.0 5.0 0.00 0.50 0.50 66 1008.6
20260902175743 85 268 1.0 8.0 0.00 0.50 0.50 67 1008.6
20260902175239 84 188 2.0 5.0 0.00 0.50 0.50 70 1008.7
20260902174734 82 221 5.0 10.0 0.00 0.50 0.50 73 1008.5
20260902174230 82 217 4.0 8.0 0.00 0.50 0.50 74 1008.7
20260902173725 84 243 3.0 5.0 0.00 0.50 0.50 69 1008.7
20260902173219 83 219 5.0 11.0 0.00 0.50 0.50 71 1008.8
20260902172714 82 301 1.0 7.0 0.00 0.50 0.50 74 1009.0
20260902172213 82 216 3.0 7.0 0.00 0.50 0.50 73 1008.7
20260902171709 82 208 2.0 7.0 0.00 0.50 0.50 74 1008.9
20260902171204 81 197 3.0 9.0 0.00 0.50 0.50 75 1008.8
20260902170701 81 237 5.0 8.0 0.00 0.50 0.50 73 1008.6
20260902170155 81 230 4.0 5.0 0.00 0.50 0.50 73 1008.8
20260902165650 80 204 4.0 8.0 0.00 0.50 0.50 77 1008.3
20260902165144 80 206 4.0 6.0 0.00 0.50 0.50 76 1008.7
20260902164640 79 179 4.0 9.0 0.00 0.50 0.50 77 1008.5
20260902164139 79 206 4.0 5.0 0.00 0.50 0.50 78 1008.6
20260902163634 78 244 4.0 7.0 0.00 0.50 0.50 79 1008.6
20260902163134 78 222 7.0 10.0 0.00 0.50 0.50 79 1008.7
20260902162632 78 201 4.0 7.0 0.00 0.50 0.50 80 1008.6
20260902162127 77 203 4.0 10.0 0.00 0.50 0.50 81 1008.8
20260902161622 77 205 6.0 11.0 0.00 0.50 0.50 81 1008.8
20260902161118 76 182 5.0 13.0 0.00 0.50 0.50 81 1008.7
20260902160614 76 208 4.0 11.0 0.00 0.50 0.50 81 1009.0
20260902160108 76 214 6.0 15.0 0.00 0.50 0.50 82 1009.0
20260902155607 76 180 4.0 9.0 0.00 0.50 0.50 83 1008.8
20260902155106 76 190 3.0 11.0 0.00 0.50 0.50 83 1008.8
20260902154601 75 202 4.0 7.0 0.00 0.50 0.50 84 1008.8
20260902154056 75 196 5.0 8.0 0.00 0.50 0.50 85 1008.8
20260902153554 74 201 6.0 12.0 0.00 0.50 0.50 86 1008.9
20260902153050 74 201 6.0 11.0 0.00 0.50 0.50 87 1008.5
20260902152541 74 189 5.0 10.0 0.00 0.50 0.50 88 1008.7
20260902152036 73 202 8.0 15.0 0.00 0.50 0.50 89 1008.9
20260902151531 72 238 4.0 11.0 0.00 0.50 0.50 89 1008.6
20260902151031 72 236 4.0 8.0 0.00 0.50 0.50 90 1008.6
20260902150527 72 242 2.0 6.0 0.00 0.50 0.50 91 1008.3
20260902150022 71 250 2.0 8.0 0.00 0.50 0.50 91 1008.7
20260902145517 71 303 1.0 4.0 0.00 0.50 0.50 92 1008.8
20260902145016 71 263 2.0 4.0 0.00 0.50 0.50 93 1008.5
20260902144513 70 218 3.0 7.0 0.00 0.50 0.50 94 1008.5
20260902144013 70 241 5.0 9.0 0.00 0.50 0.50 93 1008.8
20260902143508 70 284 1.0 3.0 0.00 0.50 0.50 95 1008.6
20260902143003 69 197 0.0 4.0 0.00 0.50 0.50 96 1008.6
20260902142459 68 285 1.0 3.0 0.00 0.50 0.50 97 1008.6
20260902141954 68 125 2.0 4.0 0.00 0.50 0.50 98 1008.9
20260902141449 68 218 3.0 7.0 0.00 0.50 0.50 99 1008.6
20260902140949 68 236 6.0 7.0 0.00 0.50 0.50 99 1009.0
20260902140445 67 209 3.0 5.0 0.00 0.50 0.50 99 1009.1
20260902135944 66 220 4.0 11.0 0.00 0.50 0.50 99 1009.1
20260902135440 66 176 3.0 7.0 0.00 0.50 0.50 99 1009.2
20260902134939 66 224 6.0 8.0 0.00 0.50 0.50 99 1009.3
20260902134435 66 206 3.0 4.0 0.00 0.50 0.50 99 1009.3
20260902133931 66 148 2.0 4.0 0.00 0.50 0.50 99 1009.2
20260902133430 65 170 4.0 7.0 0.00 0.50 0.50 99 1009.2
20260902132925 65 206 3.0 5.0 0.00 0.50 0.50 99 1009.4
20260902132420 65 126 3.0 4.0 0.00 0.50 0.50 99 1009.5
20260902131915 65 171 1.0 4.0 0.00 0.50 0.50 99 1009.4
20260902131413 65 174 2.0 5.0 0.00 0.50 0.50 99 1009.6
20260902130911 64 233 3.0 9.0 0.00 0.50 0.50 99 1009.7
20260902130408 64 213 4.0 6.0 0.00 0.50 0.50 99 1009.6
20260902125902 64 148 1.0 5.0 0.00 0.50 0.50 99 1009.6
20260902125358 64 210 3.0 5.0 0.00 0.50 0.50 99 1009.8
20260902124854 64 198 2.0 5.0 0.00 0.50 0.50 99 1009.7
20260902124350 64 217 4.0 7.0 0.00 0.50 0.50 99 1009.7
20260902123844 63 206 3.0 4.0 0.00 0.50 0.50 99 1009.6
20260902123341 63 120 1.0 3.0 0.00 0.50 0.50 99 1009.1
20260902122839 63 168 2.0 3.0 0.00 0.50 0.50 99 1009.2
20260902122331 63 95 0.0 3.0 0.00 0.50 0.50 99 1008.8
20260902121830 63 190 1.0 5.0 0.00 0.50 0.50 99 1008.1
20260902121325 63 62 2.0 3.0 0.00 0.50 0.50 99 1008.3
20260902120820 63 185 1.0 4.0 0.00 0.50 0.50 99 1008.5
20260902120317 63 54 3.0 4.0 0.00 0.50 0.50 99 1008.6
20260902115816 63 28 1.0 4.0 0.00 0.50 0.50 99 1008.9
20260902115313 63 147 0.0 2.0 0.00 0.50 0.50 99 1008.7
20260902114809 63 86 2.0 3.0 0.00 0.50 0.50 99 1008.5
20260902114305 63 138 0.0 4.0 0.00 0.50 0.50 99 1008.2
20260902113800 63 42 0.0 3.0 0.00 0.50 0.50 99 1008.3
20260902113255 64 149 2.0 5.0 0.00 0.50 0.50 99 1008.5
20260902112754 64 81 2.0 3.0 0.00 0.50 0.50 99 1008.7
20260902112251 64 120 0.0 3.0 0.00 0.50 0.50 99 1009.0
20260902111746 64 57 0.0 3.0 0.00 0.50 0.50 99 1009.4